Location: Newport
(44.6370°N, 124.0520°W)
Time: 10:48:35
(UTC-07:00)

Tiangong 2 - Pass Details

Date: 16 October 2017
Orbit: 388 x 391 km, 42.8° (Epoch: 21 October)

Event Time Altitude Azimuth Distance (km) Brightness Sun altitude
Exits shadow 04:45:26 10° 94° (E) 1,405 4.7 -30.3°
Drops below altitude 10° 04:45:27 10° 94° (E) 1,414 4.7 -30.3°
Sets 04:47:34 0° 91° (E) 2,277 6.0 -29.9°
